Location: Beaurecueil
(43.5122°N, 5.5450°E)
Time: 06:23:48
(UTC+00:00)

Cosmos 1939 Rocket - Pass Details

Date: 17 January 2021
Orbit: 531 x 585 km, 97.4° (Epoch: 06 March)

Event Time Altitude Azimuth Distance (km) Brightness Sun altitude
Rises 05:22:42 0° 31° (NNE) 2,743 6.6 -18.5°
Reaches altitude 10° 05:25:44 10° 57° (ENE) 1,829 6.1 -18.0°
Maximum altitude 05:27:55 14° 90° (E) 1,554 6.2 -17.6°
Drops below altitude 10° 05:30:05 10° 125° (SE) 1,805 6.5 -17.2°
Sets 05:33:02 0° 150° (SSE) 2,680 7.0 -16.7°
